| time (UTC) | temp F | wind direction | speed MPH | gust MPH | rain 1hr in | rain 24hr in | rain mn in | humidity % | barometer mb |
| 20260507193255 | 58 | 0.0 | 0.0 | 0.00 | 0.00 | 0.00 | 83 | 1014.8 | |
| 20260507192219 | 58 | 0.0 | 0.0 | 0.00 | 0.00 | 0.00 | 81 | 1014.6 | |
| 20260507191315 | 59 | 0.0 | 0.0 | 0.00 | 0.00 | 0.00 | 80 | 1014.5 | |
| 20260507190217 | 60 | 0.0 | 0.0 | 0.00 | 0.00 | 0.00 | 79 | 1014.3 | |
| 20260507185250 | 60 | 0.0 | 0.0 | 0.00 | 0.00 | 0.00 | 78 | 1014.2 | |
| 20260507184217 | 62 | 0.0 | 0.0 | 0.00 | 0.00 | 0.00 | 76 | 1014.1 | |
| 20260507183219 | 63 | 0.0 | 0.0 | 0.00 | 0.00 | 0.00 | 73 | 1013.9 | |
| 20260507182255 | 63 | 0.0 | 0.0 | 0.00 | 0.00 | 0.00 | 71 | 1013.8 | |
| 20260507181219 | 64 | 0.0 | 0.0 | 0.00 | 0.00 | 0.00 | 70 | 1013.8 | |
| 20260507180319 | 65 | 0.0 | 0.0 | 0.00 | 0.00 | 0.00 | 69 | 1013.7 | |
| 20260507175217 | 66 | 0.0 | 0.0 | 0.00 | 0.00 | 0.00 | 68 | 1013.6 | |
| 20260507174237 | 67 | 0.0 | 0.0 | 0.00 | 0.00 | 0.00 | 66 | 1013.6 | |
| 20260507173218 | 67 | 0.0 | 0.0 | 0.00 | 0.00 | 0.00 | 65 | 1013.6 | |
| 20260507172335 | 67 | 0.0 | 0.0 | 0.00 | 0.00 | 0.00 | 62 | 1013.6 | |
| 20260507171219 | 67 | 0.0 | 0.0 | 0.00 | 0.00 | 0.00 | 60 | 1013.6 | |
| 20260507170219 | 67 | 0.0 | 0.0 | 0.00 | 0.01 | 0.00 | 60 | 1013.6 | |
| 20260507165255 | 67 | 0.0 | 0.0 | 0.00 | 0.01 | 0.00 | 62 | 1013.5 | |
| 20260507164237 | 67 | 0.0 | 0.0 | 0.00 | 0.10 | 0.00 | 63 | 1013.4 | |
| 20260507163237 | 67 | 0.0 | 0.0 | 0.00 | 0.11 | 0.00 | 63 | 1013.6 | |
| 20260507162217 | 67 | 0.0 | 0.0 | 0.00 | 0.11 | 0.00 | 63 | 1013.6 | |
| 20260507161219 | 67 | 0.0 | 0.0 | 0.00 | 0.11 | 0.00 | 61 | 1013.5 | |
| 20260507160255 | 67 | 0.0 | 0.0 | 0.00 | 0.11 | 0.00 | 60 | 1013.3 | |
| 20260507155251 | 67 | 0.0 | 0.0 | 0.00 | 0.11 | 0.00 | 59 | 1013.6 | |
| 20260507154219 | 68 | 203 | 3.0 | 7.0 | 0.00 | 0.11 | 0.00 | 57 | 1013.5 |
| 20260507153316 | 68 | 0.0 | 0.0 | 0.00 | 0.11 | 0.00 | 58 | 1013.4 | |
| 20260507152217 | 68 | 203 | 3.0 | 7.0 | 0.00 | 0.11 | 0.00 | 55 | 1013.4 |
| 20260507151217 | 69 | 203 | 6.0 | 8.0 | 0.00 | 0.11 | 0.00 | 53 | 1013.0 |
| 20260507150316 | 70 | 0.0 | 2.0 | 0.00 | 0.11 | 0.00 | 54 | 1012.7 | |
| 20260507145239 | 70 | 0.0 | 2.0 | 0.00 | 0.11 | 0.00 | 52 | 1012.4 | |
| 20260507144219 | 70 | 180 | 1.0 | 4.0 | 0.00 | 0.11 | 0.00 | 62 | 1012.4 |
| 20260507143259 | 70 | 225 | 4.0 | 8.0 | 0.00 | 0.11 | 0.00 | 63 | 1012.2 |
| 20260507142257 | 71 | 203 | 5.0 | 10.0 | 0.00 | 0.11 | 0.00 | 60 | 1012.3 |
| 20260507141217 | 71 | 203 | 5.0 | 9.0 | 0.00 | 0.11 | 0.00 | 64 | 1012.3 |
| 20260507140217 | 71 | 203 | 5.0 | 9.0 | 0.00 | 0.11 | 0.00 | 65 | 1012.3 |
| 20260507135217 | 71 | 167 | 3.0 | 0.0 | 0.00 | 0.12 | 0.00 | 66 | 1012.4 |
| 20260507134217 | 71 | 180 | 4.0 | 7.0 | 0.00 | 0.12 | 0.00 | 63 | 1012.4 |
| 20260507133240 | 71 | 203 | 3.0 | 7.0 | 0.00 | 0.12 | 0.00 | 62 | 1012.5 |
| 20260507132244 | 71 | 180 | 1.0 | 5.0 | 0.00 | 0.12 | 0.00 | 61 | 1012.5 |
| 20260507131255 | 71 | 0.0 | 3.0 | 0.00 | 0.12 | 0.00 | 66 | 1012.5 | |
| 20260507130217 | 71 | 0.0 | 2.0 | 0.00 | 0.12 | 0.00 | 66 | 1012.5 | |
| 20260507125218 | 71 | 158 | 4.0 | 8.0 | 0.00 | 0.12 | 0.00 | 66 | 1012.7 |
| 20260507124219 | 71 | 180 | 4.0 | 8.0 | 0.00 | 0.12 | 0.00 | 67 | 1012.7 |
| 20260507123217 | 71 | 158 | 1.0 | 7.0 | 0.00 | 0.12 | 0.00 | 69 | 1012.7 |
| 20260507122219 | 71 | 0.0 | 0.0 | 0.00 | 0.12 | 0.00 | 68 | 1012.7 | |
| 20260507121219 | 71 | 158 | 1.0 | 6.0 | 0.00 | 0.12 | 0.00 | 69 | 1012.7 |
| 20260507120256 | 70 | 203 | 1.0 | 3.0 | 0.00 | 0.12 | 0.00 | 70 | 1012.8 |
| 20260507115218 | 71 | 158 | 6.0 | 9.0 | 0.00 | 0.12 | 0.00 | 68 | 1012.9 |
| 20260507114309 | 71 | 203 | 2.0 | 8.0 | 0.00 | 0.13 | 0.00 | 70 | 1012.8 |
| 20260507113219 | 71 | 0.0 | 0.0 | 0.00 | 0.13 | 0.00 | 70 | 1012.9 | |
| 20260507112217 | 70 | 180 | 1.0 | 4.0 | 0.00 | 0.13 | 0.00 | 69 | 1013.1 |
| 20260507111256 | 70 | 180 | 3.0 | 5.0 | 0.00 | 0.13 | 0.00 | 68 | 1013.1 |
| 20260507110220 | 70 | 158 | 2.0 | 4.0 | 0.00 | 0.13 | 0.00 | 68 | 1013.1 |
| 20260507105219 | 70 | 158 | 3.0 | 6.0 | 0.00 | 0.13 | 0.00 | 68 | 1013.2 |
| 20260507104218 | 70 | 158 | 5.0 | 9.0 | 0.00 | 0.14 | 0.00 | 66 | 1013.3 |
| 20260507103219 | 70 | 158 | 2.0 | 8.0 | 0.00 | 0.14 | 0.00 | 65 | 1013.4 |
| 20260507102256 | 70 | 180 | 5.0 | 8.0 | 0.00 | 0.14 | 0.00 | 66 | 1013.4 |
| 20260507101218 | 69 | 180 | 3.0 | 8.0 | 0.00 | 0.14 | 0.00 | 68 | 1013.4 |
| 20260507100256 | 69 | 203 | 6.0 | 9.0 | 0.00 | 0.14 | 0.00 | 65 | 1013.4 |
| 20260507095217 | 69 | 158 | 5.0 | 10.0 | 0.00 | 0.14 | 0.00 | 66 | 1013.3 |
| 20260507094256 | 69 | 180 | 9.0 | 14.0 | 0.00 | 0.15 | 0.00 | 66 | 1013.3 |
| 20260507093217 | 69 | 180 | 3.0 | 9.0 | 0.00 | 0.15 | 0.00 | 68 | 1013.2 |
| 20260507092220 | 69 | 180 | 5.0 | 11.0 | 0.00 | 0.15 | 0.00 | 66 | 1013.2 |
| 20260507091220 | 69 | 203 | 2.0 | 8.0 | 0.00 | 0.15 | 0.00 | 67 | 1013.1 |
| 20260507090219 | 68 | 203 | 7.0 | 12.0 | 0.00 | 0.15 | 0.00 | 70 | 1013.1 |
| 20260507085256 | 68 | 158 | 6.0 | 10.0 | 0.00 | 0.15 | 0.00 | 69 | 1013.1 |
| 20260507084217 | 69 | 0.0 | 1.0 | 0.00 | 0.16 | 0.00 | 69 | 1013.0 | |
| 20260507083316 | 68 | 180 | 1.0 | 6.0 | 0.00 | 0.17 | 0.00 | 72 | 1013.0 |
| 20260507082217 | 68 | 158 | 6.0 | 11.0 | 0.00 | 0.17 | 0.00 | 75 | 1013.0 |
| 20260507081220 | 68 | 158 | 1.0 | 7.0 | 0.00 | 0.19 | 0.00 | 74 | 1012.9 |
| 20260507080220 | 67 | 158 | 5.0 | 12.0 | 0.00 | 0.20 | 0.00 | 76 | 1012.8 |
| 20260507075217 | 66 | 158 | 2.0 | 7.0 | 0.00 | 0.22 | 0.00 | 76 | 1012.8 |
| 20260507074218 | 67 | 158 | 5.0 | 9.0 | 0.00 | 0.24 | 0.00 | 76 | 1012.8 |
| 20260507073218 | 66 | 0.0 | 0.0 | 0.00 | 0.25 | 0.00 | 80 | 1012.8 | |
| 20260507072218 | 66 | 158 | 1.0 | 6.0 | 0.00 | 0.26 | 0.00 | 78 | 1012.7 |
| 20260507071218 | 67 | 156 | 7.0 | 0.0 | 0.00 | 0.27 | 0.00 | 77 | 1012.6 |
| 20260507070216 | 67 | 135 | 4.0 | 10.0 | 0.00 | 0.28 | 0.00 | 77 | 1012.5 |
| 20260507065215 | 66 | 158 | 6.0 | 8.0 | 0.00 | 0.29 | 0.00 | 80 | 1012.5 |
| 20260507064218 | 65 | 0.0 | 0.0 | 0.00 | 0.30 | 0.00 | 81 | 1012.5 | |
| 20260507063215 | 65 | 0.0 | 0.0 | 0.00 | 0.31 | 0.00 | 83 | 1012.4 | |
| 20260507062238 | 63 | 0.0 | 0.0 | 0.00 | 0.31 | 0.00 | 86 | 1012.2 | |
| 20260507061249 | 63 | 0.0 | 0.0 | 0.00 | 0.32 | 0.00 | 89 | 1012.2 | |
| 20260507060217 | 62 | 0.0 | 0.0 | 0.00 | 0.34 | 0.00 | 90 | 1012.3 | |
| 20260507055236 | 62 | 0.0 | 0.0 | 0.00 | 0.42 | 0.00 | 91 | 1012.3 | |
| 20260507054215 | 61 | 0.0 | 0.0 | 0.00 | 0.52 | 0.00 | 92 | 1012.1 | |
| 20260507053254 | 60 | 0.0 | 0.0 | 0.00 | 0.61 | 0.00 | 93 | 1012.0 | |
| 20260507052216 | 60 | 0.0 | 0.0 | 0.00 | 0.61 | 0.00 | 93 | 1012.0 | |
| 20260507051218 | 59 | 0.0 | 0.0 | 0.00 | 0.61 | 0.00 | 93 | 1011.8 | |
| 20260507050254 | 59 | 0.0 | 0.0 | 0.00 | 0.61 | 0.00 | 93 | 1011.6 | |
| 20260507045218 | 59 | 0.0 | 0.0 | 0.00 | 0.61 | 0.00 | 93 | 1011.5 | |
| 20260507044216 | 59 | 0.0 | 0.0 | 0.00 | 0.61 | 0.00 | 93 | 1011.5 | |
| 20260507043216 | 59 | 0.0 | 0.0 | 0.00 | 0.61 | 0.00 | 93 | 1011.5 | |
| 20260507042254 | 59 | 0.0 | 0.0 | 0.00 | 0.61 | 0.00 | 93 | 1011.5 | |
| 20260507041216 | 59 | 0.0 | 0.0 | 0.00 | 0.61 | 0.00 | 93 | 1011.4 | |
| 20260507040218 | 58 | 0.0 | 0.0 | 0.00 | 0.61 | 0.00 | 92 | 1011.3 | |
| 20260507035216 | 58 | 0.0 | 0.0 | 0.00 | 0.61 | 0.00 | 92 | 1011.2 | |
| 20260507034218 | 59 | 0.0 | 0.0 | 0.00 | 0.61 | 0.00 | 92 | 1011.2 | |
| 20260507033216 | 59 | 0.0 | 0.0 | 0.00 | 0.61 | 0.00 | 92 | 1011.3 | |
| 20260507032236 | 59 | 0.0 | 0.0 | 0.00 | 0.61 | 0.00 | 92 | 1011.2 | |
| 20260507031218 | 59 | 0.0 | 0.0 | 0.00 | 0.61 | 0.00 | 92 | 1011.2 | |
| 20260507030254 | 59 | 0.0 | 0.0 | 0.00 | 0.61 | 0.00 | 92 | 1011.3 | |
| 20260507025218 | 59 | 0.0 | 0.0 | 0.00 | 0.61 | 0.00 | 91 | 1011.2 | |
| 20260507024216 | 59 | 0.0 | 0.0 | 0.00 | 0.61 | 0.00 | 91 | 1011.2 | |
| 20260507023218 | 60 | 0.0 | 0.0 | 0.00 | 0.61 | 0.00 | 91 | 1011.2 | |
| 20260507022216 | 60 | 0.0 | 0.0 | 0.00 | 0.61 | 0.00 | 91 | 1011.3 | |
| 20260507021216 | 60 | 0.0 | 0.0 | 0.00 | 0.61 | 0.00 | 91 | 1011.1 | |
| 20260507020309 | 60 | 0.0 | 0.0 | 0.00 | 0.61 | 0.00 | 91 | 1011.2 | |
| 20260507015238 | 60 | 0.0 | 0.0 | 0.00 | 0.61 | 0.00 | 91 | 1011.2 | |
| 20260507014223 | 60 | 0.0 | 0.0 | 0.00 | 0.61 | 0.00 | 91 | 1011.2 | |
| 20260507013216 | 60 | 0.0 | 0.0 | 0.00 | 0.61 | 0.00 | 90 | 1011.3 | |
| 20260507012218 | 60 | 0.0 | 0.0 | 0.00 | 0.61 | 0.00 | 90 | 1011.2 | |
| 20260507010216 | 60 | 0.0 | 0.0 | 0.00 | 0.61 | 0.00 | 90 | 1011.3 | |
| 20260507005255 | 60 | 0.0 | 0.0 | 0.00 | 0.61 | 0.00 | 90 | 1011.2 | |
| 20260507004218 | 60 | 0.0 | 0.0 | 0.00 | 0.61 | 0.00 | 90 | 1011.2 | |
| 20260507003254 | 60 | 0.0 | 0.0 | 0.00 | 0.61 | 0.00 | 89 | 1011.3 | |
| 20260507002218 | 60 | 0.0 | 0.0 | 0.00 | 0.61 | 0.00 | 89 | 1011.2 | |
| 20260507001218 | 60 | 0.0 | 0.0 | 0.00 | 0.61 | 0.00 | 89 | 1011.2 | |
| 20260507000216 | 60 | 0.0 | 0.0 | 0.00 | 0.61 | 0.00 | 89 | 1011.3 | |
| 20260506235216 | 60 | 0.0 | 0.0 | 0.00 | 0.61 | 0.00 | 89 | 1011.3 | |
| 20260506234218 | 60 | 0.0 | 0.0 | 0.00 | 0.61 | 0.00 | 88 | 1011.4 | |
| 20260506233218 | 60 | 0.0 | 0.0 | 0.00 | 0.61 | 0.00 | 88 | 1011.4 | |
| 20260506232218 | 60 | 0.0 | 0.0 | 0.00 | 0.61 | 0.00 | 88 | 1011.5 | |
| 20260506231218 | 60 | 0.0 | 0.0 | 0.00 | 0.61 | 0.00 | 88 | 1011.7 | |
| 20260506230218 | 60 | 0.0 | 0.0 | 0.00 | 0.61 | 0.00 | 88 | 1011.7 | |
| 20260506225237 | 60 | 0.0 | 7.0 | 0.00 | 0.61 | 0.00 | 87 | 1011.6 | |
| 20260506224216 | 60 | 0.0 | 0.0 | 0.00 | 0.61 | 0.00 | 87 | 1011.6 | |
| 20260506223216 | 60 | 135 | 4.0 | 22.0 | 0.00 | 0.61 | 0.00 | 87 | 1011.6 |
| 20260506222255 | 60 | 0.0 | 0.0 | 0.00 | 0.61 | 0.00 | 87 | 1011.7 | |
| 20260506221218 | 59 | 0.0 | 0.0 | 0.00 | 0.61 | 0.00 | 87 | 1011.6 | |
| 20260506220255 | 59 | 0.0 | 0.0 | 0.00 | 0.61 | 0.00 | 88 | 1011.5 | |
| 20260506215217 | 59 | 0.0 | 0.0 | 0.00 | 0.61 | 0.61 | 88 | 1011.4 | |
| 20260506214245 | 59 | 0.0 | 0.0 | 0.00 | 0.61 | 0.61 | 89 | 1011.5 | |
| 20260506213217 | 59 | 0.0 | 0.0 | 0.00 | 0.61 | 0.61 | 90 | 1011.4 | |
| 20260506212219 | 59 | 0.0 | 0.0 | 0.00 | 0.61 | 0.61 | 90 | 1011.4 | |
| 20260506211217 | 60 | 0.0 | 0.0 | 0.00 | 0.61 | 0.61 | 89 | 1011.5 | |
| 20260506210219 | 60 | 0.0 | 0.0 | 0.00 | 0.61 | 0.61 | 89 | 1011.5 | |
| 20260506205219 | 60 | 0.0 | 0.0 | 0.00 | 0.61 | 0.61 | 89 | 1011.6 | |
| 20260506204256 | 60 | 0.0 | 0.0 | 0.00 | 0.61 | 0.61 | 89 | 1011.5 | |
| 20260506203219 | 59 | 0.0 | 0.0 | 0.00 | 0.61 | 0.61 | 89 | 1011.5 | |
| 20260506202217 | 59 | 0.0 | 1.0 | 0.00 | 0.61 | 0.61 | 89 | 1011.4 | |
| 20260506201256 | 59 | 0.0 | 0.0 | 0.00 | 0.61 | 0.61 | 90 | 1011.4 | |
| 20260506200218 | 59 | 0.0 | 0.0 | 0.00 | 0.61 | 0.61 | 91 | 1011.3 | |
| 20260506195240 | 60 | 158 | 1.0 | 4.0 | 0.00 | 0.61 | 0.61 | 92 | 1011.1 |
| 20260506194240 | 60 | 0.0 | 0.0 | 0.00 | 0.61 | 0.61 | 92 | 1011.1 |